Weather History for Manhattan, KS

Change the Weather History Date:

Sunday, October 26, 2014

  Actual Average Record
Temperature  
Mean Temperature 72 °F 51 °F  
Max Temperature 89 °F 64 °F 89 °F (2014)
Min Temperature 54 °F 38 °F 24 °F (2001)
Degree Days  
Heating Degree Days 0 14  
Month to date heating degree days 176 253  
Since 1 July heating degree days 233 323  
Cooling Degree Days 7 0  
Month to date cooling degree days 28 21  
Year to date cooling degree days 1581 1358  
Growing Degree Days 22 (Base 50)    
Moisture  
Dew Point 55 °F    
Average Humidity 66    
Maximum Humidity 100    
Minimum Humidity 32    
Precipitation  
Precipitation 0.00 in 0.06 in 0.51 in (2004)
Month to date precipitation 2.45 1.92  
Year to date precipitation 20.62 29.63  
Sea Level Pressure  
Sea Level Pressure 29.70 in    
Wind  
Wind Speed 12 mph (SSW)    
Max Wind Speed 31 mph    
Max Gust Speed 46 mph    
Visibility 8 miles    
Events      
T = Trace of Precipitation, MM = Missing Value Source: NWS Daily Summary

Daily Weather History Graph

Daily Weather History Graph

Search for Another Location

Airport:

Trip Planner

Search our weather history database for the weather conditions in past years. The results will help you decide how hot, cold, wet, or windy it might be!

Date:

Astronomy

Oct. 26, 2014 Rise Set
Actual Time 7:47 AM CDT 6:32 PM CDT
Civil Twilight 7:20 AM CDT 7:00 PM CDT
Nautical Twilight 6:49 AM CDT 7:31 PM CDT
Astronomical Twilight 6:18 AM CDT 8:02 PM CDT
Moon 10:26 AM CDT (10/26) 8:46 PM CDT (10/26)
Length of Visible Light 11h 39m
Length of Day
10h 45m
Waxing Crescent, 8% of the Moon is Illuminated
Oct 26
Waxing Crescent
Oct 30
First Quarter
Nov 6
Full
Nov 14
Last Quarter
Nov 22
New

Hourly Weather History & Observations

Time (CDT) Temp. Heat Index Dew Point Humidity Pressure Visibility Wind Dir Wind Speed Gust Speed Precip Events Conditions
12:52 AM 63.0 °F - 57.9 °F 84% 29.91 in 10.0 mi NNE 3.5 mph - N/A   Clear
1:52 AM 61.0 °F - 57.0 °F 87% 29.90 in 10.0 mi NNE 3.5 mph - N/A   Clear
2:52 AM 57.0 °F - 55.9 °F 96% 29.88 in 8.0 mi Calm Calm - N/A   Clear
3:52 AM 59.0 °F - 57.0 °F 93% 29.86 in 7.0 mi NNE 3.5 mph - N/A   Clear
4:52 AM 57.9 °F - 57.0 °F 97% 29.83 in 7.0 mi Calm Calm - N/A   Clear
5:52 AM 57.9 °F - 55.9 °F 93% 29.82 in 6.0 mi North 3.5 mph - N/A   Clear
6:45 AM 55.0 °F - 55.0 °F 100% 29.83 in 1.2 mi Calm Calm - N/A   Clear
6:52 AM 55.9 °F - 55.0 °F 97% 29.81 in 0.8 mi Calm Calm - N/A   Clear
6:57 AM 55.0 °F - 55.0 °F 100% 29.83 in 2.5 mi Calm Calm - N/A   Clear
7:04 AM 54.0 °F - 54.0 °F 100% 29.82 in 4.0 mi Calm Calm - N/A   Clear
7:52 AM 55.0 °F - 54.0 °F 96% 29.79 in 6.0 mi Calm Calm - N/A   Clear
8:52 AM 64.9 °F - 57.9 °F 78% 29.78 in 10.0 mi South 8.1 mph - N/A   Clear
9:52 AM 73.0 °F - 57.0 °F 57% 29.75 in 10.0 mi South 9.2 mph - N/A   Clear
10:52 AM 78.1 °F - 57.0 °F 48% 29.72 in 10.0 mi South 10.4 mph 18.4 mph N/A   Clear
11:52 AM 82.9 °F 82.4 °F 57.0 °F 41% 29.68 in 10.0 mi SSW 15.0 mph 21.9 mph N/A   Clear
12:52 PM 87.1 °F 86.1 °F 57.9 °F 37% 29.64 in 10.0 mi SSW 24.2 mph 33.4 mph N/A   Clear
1:52 PM 89.1 °F 87.3 °F 55.9 °F 32% 29.60 in 10.0 mi SSW 26.5 mph 35.7 mph N/A   Clear
2:52 PM 89.1 °F 87.1 °F 55.0 °F 31% 29.56 in 10.0 mi SSW 31.1 mph 39.1 mph N/A   Clear
3:52 PM 89.1 °F 87.1 °F 55.0 °F 31% 29.54 in 10.0 mi SSW 27.6 mph 40.3 mph N/A   Clear
4:52 PM 88.0 °F 86.5 °F 55.9 °F 34% 29.54 in 10.0 mi SSW 19.6 mph 31.1 mph N/A   Clear
5:52 PM 84.9 °F 83.7 °F 55.9 °F 37% 29.53 in 10.0 mi SSW 16.1 mph 29.9 mph N/A   Clear
6:52 PM 82.0 °F 81.6 °F 55.9 °F 41% 29.55 in 10.0 mi SSW 13.8 mph 20.7 mph N/A   Clear
7:52 PM 81.0 °F 80.4 °F 53.1 °F 38% 29.56 in 10.0 mi SSW 12.7 mph - N/A   Clear
8:52 PM 80.1 °F - 51.1 °F 36% 29.55 in 10.0 mi SSW 19.6 mph 27.6 mph N/A   Clear
9:52 PM 75.9 °F - 52.0 °F 43% 29.56 in 10.0 mi SSW 11.5 mph - N/A   Clear
10:52 PM 73.0 °F - 52.0 °F 48% 29.56 in 10.0 mi SSW 11.5 mph - N/A   Clear
11:52 PM 71.1 °F - 53.1 °F 53% 29.56 in 10.0 mi SW 10.4 mph - N/A   Clear